Location: Jastrz?bniki
(50.3667°N, 20.3833°E)
Time: 10:26:16
(UTC+00:00)

Cosmos 1315 Rocket - Pass Details

Date: 05 August 2024
Orbit: 511 x 538 km, 81.2° (Epoch: 09 September)

Event Time Altitude Azimuth Distance (km) Brightness Sun altitude
Rises 00:57:37 0° 340° (NNW) 2,639 6.8 -16.7°
Reaches altitude 10° 00:59:52 10° 331° (NNW) 1,749 5.7 -16.5°
Maximum altitude 01:03:22 34° 266° (W) 860 3.5 -16.2°
Enters shadow 01:04:09 31° 239° (WSW) 924 3.5 -16.1°
